Probability
1 2 5 5 4 3 3 2 1 0 0 0 1 2 3 2 1 0 0 0 0 1 1 1 0 0 0 0 0 0 0 0 0 0 0 0 0 0 0 0 0 0 0
0 1 4 4 3 3 3 3 2 1 0 0 0 1 3 2 1 0 0 0 0 0 0 0 0 0 0 0 0 0 0 0 0 0 0 0 0 0 0 0 0 0 0
0 1 3 3 2 2 3 3 3 2 1 0 0 1 2 3 1 0 0 0 0 0 0 0 0 0 0 0 0 0 0 0 0 0 0 0 0 0 0 0 0 0 0
0 1 2 2 1 1 2 3 3 3 2 1 0 1 2 3 2 1 1 1 1 1 0 0 0 0 0 0 0 0 0 0 0 0 0 0 0 0 0 0 0 0 0
0 1 2 3 1 0 1 2 3 3 3 2 1 1 2 3 3 2 2 2 2 2 1 0 0 0 0 0 0 0 0 0 0 0 0 0 0 0 0 0 0 0 0
0 1 2 3 2 1 0 1 2 3 3 3 2 1 2 3 2 1 1 2 3 2 1 0 0 0 0 0 0 0 0 0 0 0 0 0 0 0 0 0 0 0 0
0 1 2 3 2 1 0 0 1 2 3 3 3 3 3 2 1 0 0 1 2 1 0 0 0 0 0 0 0 0 0 0 0 0 0 0 0 0 1 1 1 1 0
0 1 2 3 2 1 0 0 0 1 3 3 3 3 3 2 1 0 0 0 1 0 0 0 0 0 0 0 0 0 0 0 0 0 0 0 0 0 1 2 2 1 1
0 1 2 3 2 1 0 0 0 1 2 3 3 3 3 2 1 0 0 0 1 0 0 0 0 0 0 0 0 0 0 0 0 0 0 0 0 0 1 1 1 1 0
0 1 3 3 1 0 0 0 0 0 1 2 2 2 2 1 0 0 0 0 0 0 1 1 1 0 0 0 0 0 0 0 0 0 0 0 0 0 0 0 0 0 0
1 2 4 3 1 0 0 0 0 0 0 1 1 1 1 0 0 0 0 0 0 0 1 1 1 0 0 0 0 0 0 0 0 0 0 0 0 0 0 0 0 0 0
2 3 4 3 1 0 0 0 0 0 0 0 0 0 0 0 0 0 0 0 0 0 0 0 0 0 0 0 0 0 0 0 0 0 0 0 0 0 0 0 0 0 0
3 3 3 2 1 0 0 0 0 0 0 0 0 0 0 0 0 0 0 0 0 0 0 0 0 0 0 0 0 0 0 0 0 0 0 0 0 0 0 0 0 0 0
3 3 3 2 1 1 0 0 1 1 0 0 0 0 0 0 0 0 0 0 0 0 0 0 0 0 0 0 0 0 0 0 0 0 0 0 0 0 0 0 0 0 0
2 2 2 1 0 0 0 0 1 1 0 0 0 0 0 0 0 0 0 0 0 0 0 0 0 0 0 0 0 0 0 0 0 0 0 0 0 0 0 0 0 0 0
1 1 1 0 0 0 0 0 1 1 0 0 0 0 0 0 0 0 0 0 0 0 0 0 0 0 0 0 0 0 0 0 0 0 0 0 0 0 0 0 0 0 0
0 0 0 0 0 0 0 0 0 0 0 0 0 0 0 0 0 0 0 0 0 0 0 0 0 0 0 0 0 0 0 0 0 0 0 0 0 0 0 0 0 0 0
0 0 0 0 0 0 0 0 0 0 0 0 0 0 0 0 0 0 0 0 0 0 0 0 0 0 0 0 0 0 0 0 0 0 0 0 0 0 0 0 0 0 0
0 0 0 0 0 0 0 0 0 0 0 0 0 0 0 0 0 0 0 0 0 0 0 0 0 0 0 0 0 0 0 0 0 0 0 0 0 0 0 0 0 0 0
0 0 0 0 0 0 0 0 0 0 0 0 0 0 0 0 0 0 0 0 0 0 0 0 0 0 0 0 0 0 0 0 0 0 0 0 0 0 0 0 0 0 0
0 0 0 0 0 0 0 0 0 0 0 0 0 0 0 0 0 0 0 0 0 0 0 0 0 0 0 0 0 0 0 0 0 0 0 0 0 0 0 0 0 0 0
0 0 0 0 0 0 0 0 0 0 0 1 1 0 0 0 0 0 0 0 0 0 0 0 0 0 0 0 0 0 0 0 0 0 0 0 0 0 0 0 0 0 0
0 0 0 0 0 0 0 0 0 0 0 1 1 0 0 0 0 0 0 0 0 0 0 0 0 0 0 0 0 0 0 0 0 0 0 0 0 0 0 0 0 0 0
0 0 0 0 0 0 0 0 0 0 0 1 1 0 0 0 0 0 0 0 0 0 0 0 0 0 0 0 0 0 0 0 0 0 0 0 0 0 0 0 0 0 0
0 0 0 0 0 0 0 0 0 0 0 0 0 0 0 0 0 0 0 0 0 0 0 0 0 0 0 0 0 0 0 0 0 0 0 0 0 0 0 0 0 0 0
0 0 0 0 0 0 0 0 0 0 0 0 0 0 0 0 0 0 0 0 0 0 0 0 0 0 0 0 0 0 0 0 0 0 0 0 0 0 0 0 0 0 0
Wind_Speed
1 1 2 2 2 1 1 2 2 2 1 1 2 2 2 2 2 2 1 1 1 1 1 1 2 1 1 1 1 1 1 2 2 3 2 1 1 2 3 2 2 2 2
2 2 2 2 2 2 2 3 2 2 2 2 2 2 2 3 2 2 2 2 2 2 2 2 2 1 1 1 1 1 2 2 2 3 2 1 1 2 2 2 2 2 2
2 2 2 2 2 3 3 3 3 3 3 2 2 2 3 3 3 3 3 3 3 3 3 3 3 2 2 2 2 2 2 1 1 2 2 1 1 1 1 2 2 2 2
2 2 2 3 3 3 3 3 3 3 3 3 3 3 3 3 3 4 3 3 3 3 3 3 4 4 4 3 2 2 2 1 1 2 2 1 1 1 0 0 1 2 2
2 3 4 3 3 2 3 3 3 3 3 3 3 3 3 3 3 3 4 3 3 3 3 3 4 4 4 3 2 2 2 2 2 2 2 1 1 1 1 1 1 1 2
3 4 4 3 3 3 3 3 2 2 3 2 3 3 3 4 5 4 3 3 3 3 3 3 4 4 4 4 3 2 2 3 3 3 2 3 3 3 2 2 1 0 1
4 4 4 3 3 4 4 3 3 3 3 3 4 4 4 5 6 5 4 3 3 4 4 4 3 3 3 3 3 2 3 3 4 3 4 4 4 4 3 2 2 2 2
4 4 4 4 4 3 3 4 4 3 3 4 4 4 4 6 6 6 5 3 3 4 4 4 4 3 3 3 2 2 2 2 4 3 4 4 4 3 4 4 3 1 1
4 5 5 4 4 4 4 5 4 3 4 4 4 4 5 6 7 6 5 3 3 4 3 3 4 4 6 4 3 2 2 3 3 3 2 2 1 2 3 3 2 1 1
6 6 5 5 5 5 5 4 3 4 4 4 4 4 5 5 7 7 5 3 3 3 3 3 5 5 5 4 3 3 3 3 2 2 1 1 1 2 3 3 4 3 1
5 4 4 4 5 5 4 3 3 3 3 3 4 4 5 6 7 7 7 3 4 3 3 3 4 6 5 5 4 3 4 2 2 1 1 0 0 0 1 1 3 3 3
3 4 4 4 4 3 3 3 3 3 3 3 3 4 3 4 6 6 7 6 5 4 4 3 4 5 4 4 3 3 2 1 1 1 0 0 1 1 1 1 2 1 2
3 4 4 4 3 3 3 4 3 3 3 3 3 4 4 3 4 7 8 7 6 3 3 5 4 4 3 3 3 2 2 1 1 1 1 2 2 1 0 0 1 1 1
3 4 3 3 3 3 3 3 4 4 4 4 4 4 4 3 3 4 4 4 5 4 3 3 3 2 2 2 2 1 1 2 2 2 2 1 0 0 0 0 0 0 1
3 3 3 3 3 3 3 4 5 6 6 6 6 5 5 5 6 7 5 4 4 4 3 1 1 1 1 1 1 1 1 1 1 1 1 1 1 1 0 0 0 0 1
3 3 3 3 2 2 2 3 5 6 8 9 8 6 5 6 6 6 7 7 6 6 3 3 3 3 3 3 3 2 2 2 2 2 2 2 2 2 1 0 0 1 1
4 4 3 3 3 3 3 3 3 4 5 6 6 6 5 4 4 5 5 5 5 6 3 3 3 4 4 4 3 3 3 3 2 2 2 2 2 1 1 1 1 0 0
4 4 3 3 3 3 3 3 3 3 3 2 3 5 4 4 3 3 3 2 2 2 3 3 4 4 4 4 4 4 3 3 3 3 3 2 2 2 2 1 1 1 1
3 3 2 2 2 3 3 2 2 3 3 2 1 1 2 2 2 2 3 2 3 3 3 3 3 3 3 3 3 3 3 3 3 3 3 3 3 2 2 2 2 2 1
2 4 3 2 2 2 2 2 2 2 2 2 2 2 1 2 1 1 2 2 2 2 2 2 3 3 3 3 3 3 3 3 3 3 3 3 3 3 3 3 2 2 1
2 2 3 2 2 2 2 3 3 2 2 2 2 2 2 2 2 2 2 2 2 2 2 2 2 2 2 2 3 3 4 3 3 3 3 3 3 2 2 2 2 2 1
2 2 2 2 2 2 2 2 2 2 2 2 1 1 2 1 1 2 2 2 2 2 2 2 2 2 2 3 3 3 3 3 4 4 4 3 3 3 2 2 2 2 2
2 2 2 2 2 3 2 2 2 1 1 1 1 1 1 2 2 2 2 2 1 1 1 1 2 2 1 2 2 3 3 3 3 4 4 4 3 3 3 3 3 3 2
2 2 2 2 1 1 2 2 2 2 1 1 1 1 2 2 2 2 2 1 1 1 1 1 2 2 2 2 2 2 2 2 3 3 5 5 4 3 3 3 3 3 3
2 2 2 2 2 2 2 2 2 2 2 2 2 2 2 2 2 2 2 1 1 1 2 2 2 2 3 3 2 2 2 3 3 3 3 4 4 4 4 4 3 3 2
2 2 2 2 1 1 2 2 2 2 2 2 2 2 2 2 2 2 2 2 2 2 2 2 2 2 3 3 3 3 3 3 4 4 3 3 4 4 4 3 4 3 3
Wind_Direction
231 203 181 205 215 203 213 235 240 254 254 245 247 240 236 237 229 205 213 204 200 256 267 217 241 231 234 257 200 173 191 169 222 276 273 289 303 321 333 331 325 328 327
229 212 202 210 208 209 234 243 239 250 250 240 242 247 242 239 232 216 220 217 209 224 250 238 242 235 233 238 213 215 216 196 190 253 276 284 277 290 323 329 338 346 333
232 224 215 218 217 226 237 241 235 238 243 240 234 241 249 244 233 226 215 213 216 226 230 236 238 222 237 243 227 219 224 223 189 205 252 261 284 319 355 345 352 347 337
229 235 230 231 231 238 243 240 234 230 227 234 239 242 247 245 233 227 218 215 221 237 240 241 234 223 226 223 218 215 211 204 196 194 232 246 253 299 32 327 341 346 329
233 243 242 241 241 246 252 249 243 232 232 234 239 250 252 245 238 227 215 216 217 236 249 257 248 240 247 231 227 209 197 196 199 208 221 225 229 228 235 230 238 331 319
231 246 247 242 243 243 246 248 246 244 242 239 239 239 250 256 259 243 222 213 215 221 238 255 259 246 253 256 261 237 210 203 204 203 214 220 227 220 201 199 177 157 290
232 242 239 233 237 242 244 245 242 240 239 243 244 239 245 256 257 247 237 211 216 223 229 235 255 254 251 231 249 260 250 248 220 207 206 224 220 210 187 193 205 206 226
234 244 239 229 235 240 234 237 241 241 235 238 243 241 243 255 255 247 237 209 220 232 231 226 231 243 239 215 198 223 252 262 249 232 218 226 221 199 188 188 189 188 253
238 243 238 228 231 236 239 240 239 236 239 239 238 237 237 250 252 245 232 202 221 239 242 235 229 231 243 228 191 211 257 280 275 257 256 253 230 189 159 131 139 166 246
239 242 238 227 225 231 237 244 244 238 242 241 243 238 232 239 248 240 224 204 216 232 241 243 246 248 243 224 199 200 230 255 267 254 260 277 206 189 176 175 176 181 193
246 245 240 231 230 230 233 238 237 239 245 247 247 250 239 238 245 244 233 211 209 219 226 235 244 250 247 230 225 206 227 223 227 217 207 207 15 284 221 208 191 185 191
248 240 241 239 237 231 220 232 228 222 231 246 251 257 250 245 244 244 239 235 228 214 226 230 237 238 238 232 230 230 218 161 159 178 175 225 249 264 262 237 215 215 222
245 243 244 246 238 226 217 220 225 222 227 238 239 246 255 248 245 247 240 236 236 229 225 235 245 226 217 224 234 229 192 156 170 191 212 235 240 247 286 16 58 64 30
236 245 246 241 241 236 229 220 222 224 229 236 237 239 245 247 240 231 224 224 225 228 228 233 245 230 203 221 238 227 200 191 193 206 216 227 205 136 122 93 173 143 61
243 245 244 236 230 234 238 233 233 234 231 232 232 224 221 235 239 234 222 213 203 202 187 187 189 189 198 214 215 217 200 196 216 211 198 188 178 173 210 226 187 145 140
243 246 238 229 229 231 240 272 272 263 266 260 253 240 237 242 244 236 234 228 214 199 185 192 200 203 204 207 208 209 204 206 208 198 189 190 197 205 210 167 85 169 164
237 244 237 228 228 231 232 240 278 303 298 274 255 245 240 244 239 230 223 213 207 192 191 196 205 209 210 206 206 205 207 210 201 193 192 191 197 203 194 183 178 199 225
244 249 242 228 228 229 232 237 244 260 277 286 262 240 234 228 220 212 197 170 195 193 196 203 210 215 214 210 207 207 202 197 195 195 195 192 191 191 194 203 201 204 212
243 245 236 231 231 235 243 244 245 257 251 247 260 264 229 207 193 193 172 176 196 207 209 213 215 217 219 214 208 204 199 199 198 190 195 197 192 187 197 210 206 203 202
245 260 261 239 236 238 239 252 253 251 243 232 223 221 176 134 148 185 190 189 197 210 214 218 219 219 217 215 208 200 197 197 193 193 196 195 192 193 197 198 197 196 206
243 252 265 268 243 239 239 241 250 245 230 228 236 228 184 177 188 196 202 203 209 218 219 219 219 218 217 214 211 204 200 200 196 194 192 191 190 194 197 192 191 192 188
237 240 243 252 256 252 252 246 247 232 217 214 232 195 182 169 177 190 211 223 227 226 222 213 214 215 214 214 213 208 204 205 202 195 191 188 187 189 188 181 176 179 183
222 240 260 268 262 263 267 263 256 232 227 223 214 178 177 195 200 206 220 228 225 231 228 211 214 226 225 224 220 206 203 206 203 190 186 186 187 189 181 183 183 182 188
217 225 240 255 262 258 259 263 258 237 229 227 224 214 212 213 215 223 231 231 220 223 218 214 217 225 229 231 227 217 210 200 187 185 184 183 183 180 177 181 186 189 188
218 219 226 231 231 239 252 263 262 239 234 233 225 220 219 223 229 230 226 223 216 219 229 229 230 228 226 223 222 214 199 185 180 169 170 174 174 171 172 177 179 178 179
218 217 221 226 226 234 245 255 256 242 234 234 227 219 217 222 230 236 225 215 222 226 228 228 235 236 232 220 216 207 190 180 169 171 169 163 162 165 166 169 171 173 173